Regional Weather Roundup
Issued by NWS

Home | Current Version | Previous Version | Graphics & Text | Print | Product List | Glossary On
Versions: 1 2 3 4 5 6 7 8 9 10 11 12 13 14 15 16 17 18 19 20 21 22 23 24 25 26 27 28 29 30 31 32 33 34 35 36 37 38 39 40 41 42 43 44 45 46 47 48 49 50
000
ASUS43 KLOT 030521
RWRIL

ILLINOIS REGIONAL WEATHER ROUNDUP
NATIONAL WEATHER SERVICE CHICAGO/ROMEOVILLE IL
1200 AM CDT MON AUG 03 2015

NOTE: "FAIR" INDICATES FEW OR NO CLOUDS BELOW 12,000 FEET WITH NO
SIGNIFICANT WEATHER AND/OR OBSTRUCTIONS TO VISIBILITY.

* THESE STATIONS ARE NOT UNDER NWS QUALITY CONTROL. THEY ALSO MAY NOT
  REPORT WEATHER SUCH AS PRECIPITATION OR FOG.

ILZ001-002-007-009-015-016-024-030600-
NORTHWEST ILLINOIS

CITY           SKY/WX    TMP DP  RH WIND       PRES   REMARKS
MOLINE         CLEAR     76  62  62 W12       29.77R
STERLING*      PTCLDY    79  72  78 NW12      29.72R HX  82
SAVANNA*       CLEAR     78  67  69 NW8       29.75R HX  80
$$

ILZ003-004-008-010-011-017-018-030600-
NORTH CENTRAL ILLINOIS

CITY           SKY/WX    TMP DP  RH WIND       PRES   REMARKS
ROCKFORD       MOCLDY    77  63  61 N7        29.74R
FREEPORT*      PTCLDY    73  64  73 NW5       29.77R
ROCHELLE*      MOCLDY    78  71  78 NW10      29.74R HX  80
DE KALB*       CLOUDY    72  67  85 NE8       29.76R
PERU*          PTCLDY    79  69  73 W12G21    29.72R HX  81
$$

ILZ005-006-012>014-019>023-030600-
NORTHEAST ILLINOIS

CITY           SKY/WX    TMP DP  RH WIND       PRES   REMARKS
CHICAGO-OHARE  CLOUDY    68  67  96 CALM      29.74R
CHICAGO-MIDWAY TSTM      70  64  81 W6        29.72F
AURORA         MOCLDY    70  64  81 NE5       29.75R
LANSING*       CLOUDY    67  63  87 N14       29.76R
JOLIET*        MOCLDY    83  74  75 NW5G16    29.72R THUNDER HX  89
WAUKEGAN       CLOUDY    67  65  93 VRB3      29.72S
DUPAGE AIRPORT MOCLDY    67  64  90 E6        29.75R
KANKAKEE*      CLEAR     78  70  78 SW12G18   29.73S
WHEELING       NOT AVBL
MORRIS*        MOCLDY    79  73  81 W12       29.71R HX  82
ROMEOVILLE*    CLOUDY    69  64  83 N30G43    29.76R
NORTHERLY ISL    N/A     65  63  93 W14         N/A
$$

LMZ740>746-030600-
SOUTHERN LAKE MICHIGAN

STATION/POSITION SKY/WX   TEMP    WIND        PRES    VSBY  WAVE
                          AIR SEA DIR/SP/G                  HT/PER
                          (F)     (DEG/KT/KT) (MB)    (MI)  (FT/S)
HARRISON CRIB              66     270/ 16/ 18   N/A
BURNHAM HARBOR             66     270/  9/ 35   N/A
CALUMET HARBOR             73      10/ 14/ 25   N/A
BURNS HARBOR               65     300/ 34     1007.8R
MICHIGAN CITY              68     210/ 20/ 26   N/A
MICHIGAN CITY 6N           68 73  240/ 19/ 29   N/A           3/ 4
ST. JOSEPH                 71 73  250/ 14/ 23   N/A           6/ 5
$$

ILZ025>027-034>036-040-047-049-050-058-095>099-030600-
WEST-CENTRAL ILLINOIS

CITY           SKY/WX    TMP DP  RH WIND       PRES   REMARKS
QUINCY         CLOUDY    79  54  41 W6        29.79F
GALESBURG*     CLEAR     76  71  85 W7        29.77S
MACOMB*        PTCLDY    73  71  92 W7        29.81R
JACKSONVILLE*  CLOUDY    79  72  80 SW6       29.79F HX  82
PITTSFIELD*    CLOUDY    80  69  69 SW6       29.81F HX  83
$$

ILZ028>032-037-038-041>044-048-051>054-059>061-030600-
CENTRAL ILLINOIS

CITY           SKY/WX    TMP DP  RH WIND       PRES   REMARKS
PONTIAC        MOCLDY    80  74  80 SW9       29.75R HX  84
BLOOMINGTON    CLOUDY    78  72  82 SW14      29.78F HX  80
DECATUR        PTCLDY    79  68  69 SW10      29.80F HX  81
PEORIA         PTCLDY    81  72  74 W12       29.76R HX  85
LACON*         PTCLDY    80  71  73 W12G20    29.72S HX  84
LINCOLN*       MOCLDY    79  70  73 SW5       29.77S HX  81
SPRINGFIELD    MOCLDY    80  70  71 SW8       29.79F HX  83
TAYLORVILLE    MOCLDY    73  68  83 SW6       29.81F
$$

ILZ033-039-045-046-055>057-062-063-030600-
EAST-CENTRAL ILLINOIS

CITY           SKY/WX    TMP DP  RH WIND       PRES   REMARKS
CHAMPAIGN      MOCLDY    74  71  91 S8        29.80F
DANVILLE*      MOCLDY    76  72  86 SW10      29.77F
RANTOUL*       CLOUDY    78  71  78 SW12      29.77F HX  81
MATTOON        PTCLDY    76  71  85 SW7       29.82F
PARIS*         PTCLDY    76  73  88 S7        29.83F
$$

ILZ079-100>102-030600-
SOUTHWEST ILLINOIS

CITY           SKY/WX    TMP DP  RH WIND       PRES   REMARKS
ALTON          CLOUDY    77  68  75 SW7       29.84F
CAHOKIA*       MOCLDY    81  71  71 SW5       29.85S HX  85
SPARTA*        PTCLDY    79  72  79 SW6       29.88R HX  81
$$

ILZ064>066-069>071-074>076-080>082-084>086-088>090-092>094-030600-
SOUTH-CENTRAL ILLINOIS

CITY           SKY/WX    TMP DP  RH WIND       PRES   REMARKS
CARBONDALE     PTCLDY    78  70  76 SW7       29.87S HX  80
CAIRO*         CLEAR     78  72  81 SW5       29.89S HX  81
EFFINGHAM*     PTCLDY    77  69  75 S6        29.85F
MARION         PTCLDY    77  72  83 SW7       29.88S
MT. VERNON     MOCLDY    77  68  73 SW6       29.87S
CENTRALIA*     MOCLDY    78  70  77 SW7       29.86S HX  80
SALEM*         MOCLDY    80  72  77 SW6       29.86S HX  83
METROPOLIS*    PTCLDY    78  74  88 S5        29.91R
$$

ILZ067-068-072-073-078-083-087-091-030600-
SOUTHEAST ILLINOIS

CITY           SKY/WX    TMP DP  RH WIND       PRES   REMARKS
LAWRENCEVILLE  PTCLDY    74  71  91 S6        29.86R
FLORA*         CLEAR     76  71  85 SW5       29.86S
FAIRFIELD*     PTCLDY    76  73  88 S3        29.86R
HARRISBURG*    CLEAR     75  73  93 CALM      29.89S
ROBINSON*      CLEAR     75  71  88 S7        29.85S
CARMI*         PTCLDY    74  68  82 S6        29.87S
$$

ABBREVIATIONS USED IN REMARKS
   TC - TEMPERATURE IN CELSIUS
  WCI - WIND CHILL INDEX
   HX - HEAT INDEX
  VSB - VISIBILITY
$$




USA.gov is the U.S. government's official web portal to all federal, state and local government web resources and services.